Zurück zum Katalog

NAVSTAR 39

USA 128

AktivNavigationMEO
NORAD 24320·PAYLOAD·🇺🇸 United States

Gestartet Sep 12, 1996 von Cape Canaveral Space Force Station

Loading…

Nächste Überflüge (nächste 24 Stunden)

TLE

AktuellSource: Space-Track

Epoche: Sep 13, 2026, 05:27 UTC

1 24320U 96056A   26256.22732230  .00000002  00000-0  00000+0 0  9990
2 24320  53.6785 233.6973 0030945 219.1762 251.2119  1.86499014212153

Verfolge NAVSTAR 39 in Echtzeit mit AllMySat

Download on the App Store